Change the Weather History Date:

Monday, February 11, 2013

  Actual Average Record
Temperature  
Mean Temperature 24 °F -  
Max Temperature 39 °F 36 °F 51 °F (2012)
Min Temperature 9 °F 18 °F 1 °F (1999)
Degree Days  
Heating Degree Days 41    
Moisture  
Dew Point 21 °F    
Average Humidity 79    
Maximum Humidity 88    
Minimum Humidity 51    
Precipitation  
Precipitation 0.00 in - - ()
Sea Level Pressure  
Sea Level Pressure 30.25 in    
Wind  
Wind Speed 1 mph (North)    
Max Wind Speed 7 mph    
Max Gust Speed -    
Visibility 10 miles    
Events      
Averages and records for this station are not official NWS values.
T = Trace of Precipitation, MM = Missing Value Source: NWS Daily Summary

Daily Weather History Graph

Daily Weather History Graph

Search for Another Location

Airport or City:

Trip Planner

Search our weather history database for the weather conditions in past years. The results will help you decide how hot, cold, wet, or windy it might be!

Date:

Astronomy

Feb. 11, 2013 Rise Set
Actual Time 7:00 AM PST 5:15 PM PST
Civil Twilight 6:30 AM PST 5:46 PM PST
Nautical Twilight 5:55 AM PST 6:21 PM PST
Astronomical Twilight 5:21 AM PST 6:55 PM PST
Moon 7:20 AM PST (2/11) 7:26 PM PST (2/11)
Length of Visible Light 11h 16m
Length of Day
10h 14m
Waxing Crescent, 3% of the Moon is Illuminated
Feb 11
Waxing Crescent
Feb 17
First Quarter
Feb 25
Full
Mar 4
Last Quarter
Mar 11
New

Hourly Weather History & Observations

Time (PST) Temp. Windchill Dew Point Humidity Pressure Visibility Wind Dir Wind Speed Gust Speed Precip Events Conditions
12:56 AM 16.0 °F - 12.9 °F 88% 30.24 in 10.0 mi Calm Calm - N/A   Clear
1:56 AM 15.1 °F - 10.9 °F 84% 30.24 in 10.0 mi Calm Calm - N/A   Clear
2:56 AM 14.0 °F - 10.0 °F 84% 30.22 in 10.0 mi Calm Calm - N/A   Clear
3:56 AM 12.0 °F - 8.1 °F 84% 30.24 in 9.0 mi Calm Calm - N/A   Clear
4:56 AM 10.9 °F - 7.0 °F 84% 30.26 in 10.0 mi Calm Calm - N/A   Clear
5:56 AM 10.0 °F - 6.1 °F 84% 30.27 in 10.0 mi Calm Calm - N/A   Clear
6:56 AM 9.0 °F - 6.1 °F 88% 30.28 in 10.0 mi Calm Calm - N/A   Clear
7:56 AM 10.9 °F - 6.1 °F 81% 30.27 in 10.0 mi Calm Calm - N/A   Clear
8:56 AM 18.0 °F - 15.1 °F 88% 30.25 in 10.0 mi Calm Calm - N/A   Clear
9:56 AM 28.9 °F - 24.1 °F 82% 30.24 in 10.0 mi Calm Calm - N/A   Clear
10:56 AM 39.0 °F - 24.1 °F 55% 30.23 in 10.0 mi Calm Calm - N/A   Clear
11:56 AM 39.9 °F 35.1 °F 23.0 °F 51% 30.23 in 10.0 mi Variable 6.9 mph - N/A   Clear
12:56 PM - - - N/A% 30.14 in 10.0 mi Variable 3.5 mph - N/A   Clear
1:56 PM 39.9 °F 35.1 °F 25.0 °F 55% 30.23 in - Variable 6.9 mph - N/A   Clear
2:56 PM 39.0 °F 35.7 °F 26.1 °F 60% 30.24 in 10.0 mi Variable 4.6 mph - N/A   Partly Cloudy
3:56 PM 37.0 °F - 28.0 °F 70% 30.26 in 10.0 mi Calm Calm - N/A   Scattered Clouds
4:56 PM 35.1 °F - 28.0 °F 76% 30.28 in 10.0 mi Calm Calm - N/A   Clear
5:56 PM 33.1 °F - 28.0 °F 82% 30.29 in 10.0 mi Calm Calm - N/A   Overcast
6:56 PM 33.1 °F - 27.0 °F 78% 30.30 in 10.0 mi Calm Calm - N/A   Overcast
7:56 PM 32.0 °F - 27.0 °F 82% 30.30 in 10.0 mi Calm Calm - N/A   Overcast
8:56 PM 32.0 °F - 27.0 °F 82% 30.30 in 10.0 mi Calm Calm - N/A   Overcast
9:04 PM 32.0 °F - 28.4 °F 87% 30.19 in 10.0 mi Calm Calm - N/A   Overcast
9:56 PM 35.1 °F - 30.0 °F 82% 30.27 in 10.0 mi Calm Calm - N/A   Overcast
10:56 PM 34.0 °F - 30.0 °F 85% 30.26 in 10.0 mi Calm Calm - N/A   Overcast
11:03 PM 33.8 °F 30.8 °F 30.2 °F 87% 30.21 in 10.0 mi Variable 3.5 mph - N/A   Overcast
11:29 PM 33.8 °F 30.8 °F 28.4 °F 81% 30.21 in 10.0 mi Variable 3.5 mph - N/A   Overcast
11:56 PM 34.0 °F 31.0 °F 28.9 °F 82% 30.27 in 10.0 mi Variable 3.5 mph - N/A   Overcast